Location: *
(0.8000°N, 127.3300°E)
Time: 08:48:05
(UTC+00:00)

Daily predictions for brighter satellites

Satellite Brightness Start Highest point End
(mag) Time Altitude Azimuth Time Altitude Azimuth Time Altitude Azimuth
CZ-3B R/B 4.3 12:35:27 10° WSW 12:44:25 37° SW 12:44:25 37° SW
ATLAS 3B CENTAUR R/B 4.4 18:46:46 25° NNE 18:46:46 25° NNE 18:50:49 10° ENE
Ariane 42L Rocket 4.4 18:59:23 43° ESE 18:59:23 43° ESE 19:08:29 10° E
H-2A ROCKET BODY 4.0 19:14:14 36° S 19:17:24 52° SE 19:51:03 10° ENE
Meteor 1-14 Rocket 4.2 19:23:41 10° N 19:29:14 80° E 19:34:55 10° S
GPS 2-17 Rocket1 3.6 19:47:37 47° S 19:47:37 47° S 19:51:48 10° SE
Centaur AC-42 4.2 19:48:07 15° SSW 19:49:27 16° S 19:52:03 10° SE
Meteor 1-27 Rocket 3.8 19:48:39 46° SW 19:50:07 59° W 19:55:55 10° N
Ariane H10+ 3.0 19:50:07 53° SSW 19:50:48 59° S 19:59:00 10° E
PSLV R/B 4.2 19:50:25 10° NNE 19:54:14 59° E 19:57:59 10° S
ARIANE 5 DEB (SYLDA) 2.5 19:59:39 56° WSW 20:00:19 74° S 20:04:15 10° E
CZ-4B R/B 3.3 19:58:55 10° N 20:02:59 48° WNW 20:02:59 48° WNW
Meteor 1-31 Rocket 4.5 20:00:36 10° N 20:02:00 20° NNW 20:02:00 20° NNW
TOS 2.8 20:07:17 61° WSW 20:07:38 70° SSW 20:09:51 10° ESE
Cosmos 2266 Rocket 3.9 20:09:52 10° S 20:16:09 88° W 20:22:18 10° N
CAT/Thesee 4.3 20:16:36 30° WSW 20:17:53 39° SSW 20:20:05 10° SE
CZ-4B DEB 4.2 20:12:47 10° NNE 20:18:17 87° ESE 20:23:46 10° SSW
Delta 198 4.4 20:18:08 26° W 20:21:32 54° SSW 20:26:56 10° SE
Okean 1-7 3.0 20:18:32 10° SSW 20:22:52 59° W 20:27:10 10° N
GPS 2-12 Rocket1 3.1 20:22:00 26° WSW 20:24:41 82° NNW 20:29:24 10° ENE
Meteor 1-11 Rocket 3.8 20:21:18 10° N 20:26:48 79° E 20:32:20 10° S
Cosmos 1900 4.4 20:23:11 10° SSW 20:28:16 65° WNW 20:33:20 10° NNE
CZ-2C R/B 3.7 20:28:09 10° NNW 20:31:52 21° WNW 20:33:56 17° WSW
Cosmos 1484 Rocket 2.7 20:29:06 10° N 20:32:42 55° W 20:36:21 10° SSW
Cosmos 2112 Rocket 4.0 20:27:55 10° SSW 20:33:16 81° WNW 20:38:33 10° N
ALOS 2.9 20:29:09 10° NNE 20:33:43 59° ESE 20:38:19 10° S
Ariane 44LP R/B 3.7 20:32:32 18° WNW 20:35:32 61° N 20:39:18 10° E
OAO 3 Copernicus 4.4 20:32:01 17° WSW 20:35:45 60° NW 20:40:44 10° NE
ARIANE 5 DEB (SYLDA) 2.7 20:34:52 18° W 20:37:23 75° N 20:40:47 10° E
Cosmos 1340 3.5 20:34:13 10° N 20:37:54 54° E 20:41:35 10° SSE
Cosmos 1125 Rocket 3.9 20:33:05 10° NW 20:37:57 38° WSW 20:42:48 10° S
Aurora 2 Rocket 1.8 20:36:44 17° WNW 20:39:06 86° NNE 20:42:55 10° ESE
PAYLOAD B 4.3 20:34:19 10° N 20:39:48 62° WNW 20:45:19 10° SSW
PSLV R/B 2.7 20:41:00 15° WNW 20:43:03 57° SW 20:45:43 10° SE
Meteor 1-18 Rocket 4.1 20:38:34 10° S 20:44:07 78° W 20:49:39 10° N
Delta 128 3.8 20:41:31 14° WSW 20:45:19 54° NNW 20:49:40 10° NE
Abrixas rocket 3.4 20:43:56 16° W 20:45:23 22° NW 20:47:50 10° N
Cosmos 1908 Rocket 3.5 20:44:39 10° N 20:48:58 87° W 20:53:22 10° S
Okean O Rocket 1.7 20:45:44 10° N 20:50:05 57° WNW 20:54:26 10° SSW
Stardust Del rocket 2.4 20:50:01 13° WSW 20:52:05 67° NNW 20:55:27 10° ENE
CZ-3A R/B 3.4 20:49:47 11° WSW 20:53:41 40° S 21:10:18 10° ESE
ARIANE 5 R/B 4.1 20:54:34 10° WSW 20:59:13 38° S 21:02:42 10° ESE
Cosmos 1553 Rocket 4.3 20:56:27 10° NNW 21:02:12 43° W 21:07:55 10° SSW
Cosmos 1680 Rocket 4.4 20:57:43 10° SW 21:02:15 29° WNW 21:06:45 10° NNW
DELTA 2 R/B (1) 4.4 20:59:19 10° WNW 21:04:15 33° SW 21:09:13 10° SSE
SKYMED 2 4.2 21:01:23 10° SSE 21:05:41 63° ENE 21:09:58 10° N
FENGYUN 3A 3.8 21:01:43 10° N 21:06:59 57° WNW 21:12:19 10° SSW
